Theta_e
306 307 307 307 307 307 305 303 302 301 301 301 301 301 301 302 303 301 296 300 297 292 293 295 296 293 294 291 289 292 290 292 289 288 289 286 284 287 284 289 282 283 284 283 285 281 279 295 293 286 291 294 294 294
306 307 306 307 307 305 304 302 301 301 301 301 301 301 301 302 303 304 296 301 301 294 293 299 298 299 297 296 292 293 292 292 292 290 290 289 285 286 285 278 291 284 286 285 285 285 293 294 293 297 297 294 294 295
306 307 306 307 306 304 303 301 301 301 300 300 301 301 301 302 303 303 298 298 297 293 293 294 294 300 304 302 302 292 295 297 294 298 292 291 286 288 280 283 286 294 295 287 287 291 288 294 297 297 296 295 297 298
306 306 306 307 305 303 301 300 300 300 300 300 301 301 301 301 302 302 297 298 296 293 287 291 301 298 302 302 303 303 300 301 300 298 293 290 286 293 289 290 289 293 295 291 290 293 293 296 297 297 297 298 299 302
306 306 306 306 303 301 300 300 299 300 300 300 301 301 302 302 302 300 298 299 299 293 288 289 295 300 302 305 304 303 300 298 297 294 291 289 293 292 293 293 292 296 292 289 287 294 292 293 297 298 297 299 300 301
305 306 306 305 302 300 300 299 299 299 300 300 301 301 301 301 301 297 294 303 304 301 291 285 296 296 299 303 303 302 301 300 299 295 292 293 297 294 289 288 297 299 300 298 294 298 296 297 298 300 299 299 300 300
305 306 305 303 301 299 299 299 299 299 299 300 300 301 301 302 300 293 294 300 304 302 292 287 288 298 303 305 302 301 302 299 298 294 292 293 293 295 292 289 297 298 299 298 299 298 295 297 296 298 299 299 300 301
305 305 304 301 299 299 299 299 299 299 300 301 301 301 301 303 302 297 303 304 304 298 295 287 288 292 305 298 297 303 299 298 297 294 295 294 296 297 290 298 300 299 297 297 297 297 298 300 298 297 299 298 297 297
305 304 302 300 299 298 298 298 299 300 301 301 301 302 301 300 299 302 306 307 305 297 289 289 285 284 300 298 299 299 300 292 297 292 293 295 292 290 297 298 298 297 294 294 297 296 297 298 296 297 297 297 296 296
305 303 301 299 298 298 298 298 299 299 301 302 301 298 296 300 307 306 299 296 294 294 293 287 292 288 295 295 293 295 298 292 290 293 298 293 293 300 301 301 299 299 297 296 293 292 293 295 296 296 296 297 296 296
303 302 300 298 298 297 297 298 299 299 302 296 291 292 297 305 298 294 293 291 290 287 290 291 293 291 301 292 292 296 293 295 289 293 293 292 290 299 302 302 301 300 298 296 296 296 295 296 297 297 296 297 296 296
302 300 299 298 297 297 297 298 298 296 295 294 293 296 298 297 295 291 290 294 290 287 293 292 294 296 297 300 295 295 291 294 289 298 294 289 294 302 303 302 302 300 297 296 296 297 297 297 298 298 297 297 297 297
301 299 298 297 297 297 297 298 298 298 298 298 295 293 293 292 285 286 284 288 288 293 295 294 292 296 297 296 294 292 290 289 298 290 290 293 297 303 303 302 302 300 299 297 296 297 298 298 298 299 298 298 298 297
300 298 297 297 296 297 298 298 298 297 295 294 292 282 286 287 290 291 288 288 292 292 292 291 290 290 295 293 291 287 291 293 287 285 288 293 297 302 305 304 302 300 300 297 297 297 298 298 297 298 299 298 298 296
298 297 296 296 296 297 298 297 298 298 295 291 291 281 287 291 291 291 292 290 292 292 291 289 289 291 290 290 290 288 286 286 288 285 291 297 303 304 303 305 304 304 301 299 297 297 297 298 297 296 298 298 298 297
297 295 294 296 297 299 298 298 299 298 297 292 290 287 290 290 288 289 289 289 292 291 291 291 288 287 289 290 286 285 283 282 284 285 292 297 302 303 303 304 304 305 304 301 299 299 298 298 297 296 297 297 299 298
295 292 299 298 298 298 298 296 299 293 292 290 289 293 292 290 289 289 291 290 293 289 285 288 284 283 288 285 284 285 282 284 287 291 294 300 302 302 304 304 305 305 304 302 300 299 299 300 299 297 295 297 297 299
293 298 299 298 297 299 299 296 295 292 288 290 289 291 292 293 291 291 293 294 292 290 289 286 290 285 284 280 281 286 289 292 293 294 294 298 300 304 304 303 304 304 305 303 303 302 300 299 298 297 297 297 297 298
296 297 297 296 295 295 295 294 296 289 290 293 293 294 293 293 296 296 296 295 297 296 292 289 285 281 282 286 285 288 291 291 290 293 294 296 298 299 304 303 304 304 304 305 304 303 303 301 299 299 299 297 295 296
295 296 296 295 294 294 291 293 298 291 289 292 293 292 293 293 294 294 293 293 293 291 286 283 282 283 284 287 290 291 291 290 290 289 290 292 295 295 299 303 303 305 304 305 305 300 302 301 300 299 298 297 296 295
294 296 296 295 294 295 295 293 292 293 293 291 294 293 292 294 292 290 289 292 287 285 283 285 286 287 290 292 293 292 290 289 287 288 287 287 290 294 297 300 305 303 302 303 304 303 301 301 298 298 298 298 297 296
297 298 297 296 294 294 292 296 293 295 292 292 292 293 290 289 290 289 291 287 285 286 287 287 287 289 289 291 290 290 290 289 289 289 290 290 289 290 294 297 299 302 303 303 305 304 304 304 302 302 299 298 297 296
294 297 295 295 290 289 287 296 290 292 287 289 291 289 289 290 292 294 287 288 288 291 291 289 290 291 291 291 290 290 291 289 289 289 289 289 291 293 293 295 298 295 295 298 301 306 306 299 305 302 299 298 297 295
295 293 290 289 288 285 291 288 293 291 290 288 288 285 288 290 293 290 284 286 288 289 288 289 289 288 290 290 288 289 289 290 290 290 290 289 288 288 289 291 293 296 291 292 295 297 300 306 301 306 301 298 297 296
285 285 287 284 290 287 285 287 288 288 285 287 286 286 289 293 287 285 284 286 286 286 287 288 288 288 288 288 289 289 291 290 289 288 289 289 289 288 287 288 289 291 291 289 289 292 295 299 301 306 305 301 296 296
280 285 284 285 287 286 286 284 285 285 286 286 287 291 292 289 284 282 285 287 286 287 288 288 288 288 288 289 289 288 288 289 289 288 290 291 289 287 285 285 285 287 291 290 290 291 293 295 297 304 304 303 292 297
280 282 287 291 291 290 289 289 289 287 285 285 287 287 287 280 281 285 288 289 288 289 291 291 290 289 288 288 289 289 289 288 287 288 292 292 292 291 288 286 286 288 290 291 291 291 290 292 295 298 303 303 303 300
284 287 284 287 290 292 287 287 286 285 286 290 290 285 283 283 283 288 289 291 291 291 291 292 292 291 290 290 289 288 287 287 287 287 288 288 289 290 289 290 290 287 290 290 290 291 291 292 294 295 297 302 303 305
285 288 289 287 288 288 288 287 287 289 291 290 288 287 286 288 290 290 290 291 292 290 289 288 290 291 290 291 290 289 288 285 282 280 279 280 282 284 287 288 289 289 289 288 287 287 288 289 291 293 297 303 306 305
285 290 289 288 285 284 288 291 291 294 293 292 290 288 287 289 291 293 291 290 288 287 288 289 289 288 286 286 286 286 288 286 285 282 278 279 281 285 286 287 288 287 287 287 286 287 286 289 291 297 296 298 299 296
290 290 289 289 287 289 292 294 295 294 293 290 290 286 285 286 288 289 289 289 288 287 287 286 286 287 286 285 285 284 283 286 284 284 283 283 283 284 285 286 288 287 286 286 285 284 284 284 285 288 291 293 293 293
289 288 288 286 288 292 294 292 291 290 289 288 286 287 286 285 282 284 287 288 285 284 282 285 285 285 287 287 287 287 284 285 284 283 283 283 283 283 284 285 286 286 285 284 283 282 282 282 281 281 283 285 287 288
289 290 290 289 288 288 290 288 287 287 287 287 286 287 287 285 280 284 287 288 287 286 285 286 288 287 288 287 286 286 286 287 283 281 282 281 280 280 282 282 283 285 283 282 281 280 280 279 279 279 280 280 280 281
Wind_Speed
10 10 11 12 12 9 9 10 11 12 14 14 14 14 14 13 12 5 7 8 4 6 15 21 21 15 10 7 5 4 6 5 4 4 3 4 3 4 4 4 3 3 3 3 3 3 6 8 9 3 9 20 18 18
10 10 10 12 11 9 9 10 11 12 14 14 15 15 15 14 14 10 5 7 6 6 9 21 25 25 26 28 13 5 5 4 3 4 3 3 3 4 5 4 3 2 5 3 5 6 8 14 9 9 9 12 17 18
12 10 10 11 9 10 10 10 12 13 14 15 15 16 15 16 17 10 6 8 7 8 12 8 9 15 13 17 15 5 5 5 4 1 1 2 4 4 3 5 6 2 4 3 2 5 7 13 4 6 11 13 17 19
11 10 9 10 9 9 11 11 12 14 16 16 16 16 16 16 16 14 7 7 6 5 6 8 10 12 22 11 13 14 8 3 5 3 3 3 3 4 4 11 13 3 4 7 6 5 15 3 9 8 14 15 15 12
11 9 10 9 10 10 11 12 14 15 17 17 17 17 17 16 17 12 10 8 8 6 5 10 21 7 13 6 15 12 9 8 4 3 3 4 3 4 5 6 3 4 4 2 3 4 5 11 8 12 15 12 9 10
11 10 9 10 9 10 11 13 15 17 18 19 19 18 18 18 15 5 2 3 3 3 2 5 7 12 15 10 14 14 10 5 3 3 3 3 3 3 4 4 4 6 2 4 2 4 8 8 8 9 10 10 9 9
11 10 9 10 9 10 12 14 17 18 20 21 21 19 18 16 6 5 3 2 2 3 1 5 6 6 8 3 3 3 4 2 2 2 4 3 4 5 3 5 4 8 8 5 5 3 5 9 4 8 8 10 8 6
11 9 9 10 9 10 13 15 18 21 23 23 22 20 16 16 10 6 2 9 5 1 2 4 6 6 5 5 4 1 2 3 4 3 3 3 3 4 5 3 8 4 9 4 5 4 1 6 9 10 8 9 9 10
11 10 9 9 9 10 12 15 18 21 23 25 22 22 3 3 3 0 4 8 3 1 3 2 4 6 4 3 4 3 3 3 4 4 4 3 4 5 4 7 5 6 5 5 8 9 6 8 10 10 8 10 10 10
12 11 10 9 8 10 12 14 17 23 28 27 5 3 3 3 8 8 1 2 1 1 1 3 4 6 7 6 3 2 3 2 4 6 4 5 4 0 9 9 4 7 7 5 6 9 11 6 8 11 10 10 10 9
13 12 10 9 8 9 11 13 16 22 12 5 5 4 5 5 3 5 4 4 3 3 3 5 6 5 3 4 4 3 3 3 3 1 3 2 2 1 7 5 5 8 9 6 5 5 7 8 9 8 10 11 11 10
14 12 10 8 8 9 10 12 13 7 3 7 5 7 4 3 4 4 3 2 1 1 4 4 4 4 3 3 3 5 4 2 5 3 2 2 2 3 9 6 8 8 9 7 4 7 8 10 7 8 9 10 8 9
15 12 10 8 8 9 10 12 10 11 12 3 3 4 2 3 1 4 5 3 4 1 4 7 6 4 2 2 4 4 5 4 8 2 2 4 11 4 1 6 9 7 9 7 5 7 8 11 10 8 8 9 10 11
14 11 9 8 8 9 11 9 10 7 4 4 4 4 3 2 2 3 5 2 1 4 8 8 7 3 3 2 2 4 5 5 4 3 2 6 10 13 8 7 5 8 8 9 5 7 8 10 10 9 7 9 9 11
12 9 7 9 11 12 11 10 10 4 3 3 2 2 3 5 6 6 7 6 4 3 7 8 7 4 4 3 2 4 4 3 6 7 8 11 13 5 4 5 5 5 7 6 6 6 10 7 8 7 8 8 9 10
10 5 6 8 12 8 9 9 4 4 3 3 4 4 4 4 5 6 5 5 6 7 7 4 4 4 3 4 2 7 8 6 5 5 12 15 10 10 11 7 8 6 2 7 6 5 8 6 7 7 6 8 10 9
9 3 6 12 10 9 7 3 3 5 3 3 4 4 3 4 5 5 3 3 4 4 3 4 6 4 4 4 5 4 3 7 10 10 14 15 9 7 4 9 16 17 3 7 6 5 7 7 6 6 6 7 8 10
2 5 11 9 6 1 3 5 4 3 5 6 4 1 4 2 3 5 5 6 5 6 3 2 2 3 4 4 4 5 5 7 7 9 10 13 15 11 8 8 6 13 11 3 7 6 6 6 6 5 6 6 8 8
6 3 6 4 1 2 4 5 2 3 5 2 2 2 1 2 5 5 6 6 4 3 4 4 7 4 4 2 7 9 9 8 11 12 11 15 16 16 9 7 7 9 10 8 4 2 5 6 4 5 7 4 4 4
4 5 6 3 1 4 3 2 2 3 3 1 2 0 1 4 5 6 5 6 5 4 7 5 3 4 5 7 8 7 8 10 11 12 12 12 13 18 14 4 2 3 5 9 9 2 3 3 4 5 5 5 6 5
7 6 8 4 5 5 4 1 4 3 1 2 1 1 2 5 5 5 6 5 5 4 3 3 4 5 7 8 5 6 8 10 10 9 10 12 13 13 12 11 5 4 3 5 9 10 6 3 4 5 5 5 5 5
2 12 3 5 4 5 3 4 2 2 2 3 2 2 3 2 2 4 4 4 4 3 1 3 4 4 6 7 8 8 10 12 10 8 11 12 10 12 11 11 11 6 4 7 6 6 6 6 4 4 8 7 7 5
2 4 3 5 4 2 5 3 4 5 4 3 1 1 3 2 2 5 4 3 2 2 2 2 5 7 5 6 7 8 10 11 8 8 9 8 9 10 9 9 10 10 10 10 9 7 6 9 8 1 6 7 6 5
3 3 4 5 5 4 4 5 2 1 1 2 2 3 4 3 3 2 3 2 2 3 3 4 3 4 4 7 5 6 8 8 7 6 6 7 8 9 10 9 9 8 9 8 8 9 10 8 9 7 2 7 6 6
3 4 3 4 4 5 6 6 6 3 5 6 6 3 2 3 2 2 3 3 4 3 2 3 2 3 3 4 5 5 8 7 7 7 5 5 6 7 9 8 9 9 10 12 12 12 10 8 8 3 5 2 8 8
4 5 6 8 3 5 6 6 6 5 5 6 4 3 3 2 3 3 3 3 3 1 1 2 3 3 3 3 4 4 7 8 6 6 5 4 5 8 9 10 10 10 9 8 10 13 13 11 10 7 4 9 6 10
4 6 5 5 4 6 3 3 6 3 6 4 4 4 3 3 3 3 4 3 3 4 5 3 2 2 2 3 4 6 6 8 9 7 2 2 2 5 7 8 11 10 11 11 9 11 12 12 12 12 4 4 3 6
5 4 8 6 4 2 4 4 6 8 6 3 5 6 7 4 3 2 3 4 2 1 2 2 3 2 2 3 3 5 5 6 8 9 6 6 7 7 10 8 8 13 10 11 10 10 10 11 12 12 11 8 3 8
5 4 5 5 4 1 3 4 4 5 5 7 7 4 4 4 3 4 5 4 3 3 2 3 4 4 4 4 5 6 5 6 12 17 17 11 10 10 11 11 11 10 10 11 13 10 13 12 13 12 12 8 5 4
5 6 4 7 6 5 4 4 4 3 8 7 7 9 10 7 4 4 5 4 3 3 2 4 5 6 6 6 6 7 5 6 6 7 8 10 10 10 11 12 11 11 11 11 12 13 16 13 11 6 3 5 4 3
3 7 6 5 6 7 7 8 4 10 10 12 11 11 10 7 6 6 6 5 6 6 5 5 6 6 6 6 6 6 6 5 9 9 7 6 8 9 10 10 10 10 11 12 12 13 14 13 12 11 8 7 5 3
6 9 9 5 3 7 6 3 6 11 11 12 10 9 8 5 4 3 4 4 6 5 3 3 4 4 5 5 6 6 6 7 6 7 10 7 7 9 9 9 9 9 11 12 13 14 16 16 13 15 13 15 12 10
7 9 9 7 6 7 5 6 0 4 6 6 6 7 3 4 4 3 3 4 4 3 3 3 3 4 6 7 8 7 8 4 6 9 10 6 6 8 7 8 9 9 12 11 12 13 16 18 16 18 18 18 18 17
Wind_Direction
273 282 292 294 301 306 318 320 323 322 322 325 329 328 329 322 319 318 291 286 267 266 281 269 275 270 289 288 273 316 336 8 309 322 345 342 318 309 333 304 249 228 242 253 255 266 282 28 10 350 318 307 308 308
266 276 282 287 291 302 314 317 318 319 319 321 321 321 321 316 318 324 277 295 323 265 266 300 279 263 253 253 252 236 244 355 290 306 49 306 306 296 326 286 124 246 195 264 214 247 333 312 271 302 286 291 299 292
261 272 279 287 286 299 309 312 314 315 314 316 314 315 316 310 309 310 289 292 288 275 289 262 271 282 275 223 209 230 223 193 215 83 211 270 267 320 285 264 273 31 192 217 259 246 258 304 311 315 312 287 290 291
254 259 268 279 278 292 303 308 312 312 311 311 311 311 310 306 305 304 281 282 286 283 285 286 330 313 303 285 203 208 219 126 120 142 221 233 247 211 272 287 284 306 215 229 232 281 321 313 310 318 307 301 293 309
247 253 272 268 276 290 299 305 308 310 308 310 309 309 308 309 308 301 271 252 245 248 297 306 307 270 311 234 195 187 200 222 223 192 221 258 257 264 241 253 237 223 257 300 258 6 271 301 304 323 307 315 330 323
244 244 259 260 272 286 297 303 307 310 309 307 307 309 310 312 317 299 280 59 273 223 325 304 323 294 295 286 185 190 193 201 174 179 211 237 252 281 268 278 236 266 170 249 305 281 313 274 316 306 334 341 335 333
237 244 243 256 271 285 297 304 309 310 308 305 304 306 306 304 295 250 346 324 26 60 292 291 281 261 305 142 134 204 144 155 145 204 225 242 246 215 239 254 84 273 122 115 249 235 314 340 21 341 341 335 357 340
231 229 232 251 269 288 299 308 312 311 306 303 302 303 298 296 283 260 252 221 150 173 218 282 283 281 28 30 332 161 196 163 192 229 236 235 246 214 257 173 242 233 139 138 324 355 30 131 40 2 359 355 20 13
219 217 223 246 268 290 302 311 315 316 309 302 303 297 265 202 227 330 85 142 61 84 294 276 301 300 323 215 236 177 178 194 170 215 225 225 230 235 355 341 148 76 84 35 2 356 358 102 61 7 17 16 26 23
207 206 217 242 267 288 301 315 319 321 311 305 287 203 148 221 137 138 152 170 149 122 255 277 289 276 325 310 289 300 161 255 231 217 209 207 269 182 128 264 115 100 98 67 30 348 335 67 71 40 23 23 29 28
199 202 211 235 262 286 303 315 321 326 313 358 351 7 310 273 222 213 196 203 139 200 207 239 240 276 240 291 293 262 284 213 281 296 236 127 243 349 195 247 126 99 108 81 33 350 3 36 104 66 40 36 32 35
193 202 210 229 258 282 302 311 323 325 4 313 293 282 261 265 236 288 252 99 38 176 224 247 287 266 290 306 325 313 276 275 248 207 232 296 269 216 250 138 111 106 109 83 20 32 32 40 75 81 74 62 40 42
192 197 209 228 256 282 295 302 306 308 304 231 208 230 226 258 308 248 4 48 353 310 280 303 302 237 113 30 288 324 289 269 319 257 40 51 291 323 101 116 111 104 116 105 34 67 37 62 32 104 82 70 57 41
183 192 213 235 260 275 284 287 310 324 274 242 222 284 233 238 34 264 356 65 290 350 334 328 319 285 220 127 346 286 296 305 292 349 41 337 307 302 296 114 103 120 92 115 84 64 55 72 46 21 104 83 75 65
174 197 226 250 256 259 267 281 300 279 267 269 272 250 247 17 345 357 4 3 8 329 318 317 291 254 252 126 168 292 286 280 12 10 332 323 332 34 103 106 109 83 103 82 95 81 71 66 71 30 25 101 86 78
169 197 231 229 234 230 246 286 244 220 238 261 225 271 297 334 349 6 13 355 345 334 309 302 299 314 7 358 2 20 354 22 328 298 314 306 6 28 15 22 20 349 90 105 100 94 107 84 89 80 32 42 95 82
165 222 176 185 203 237 253 251 225 216 298 263 236 240 291 15 5 347 351 324 313 332 5 334 344 44 278 13 31 39 323 302 305 325 318 346 14 51 22 24 26 350 320 126 129 118 99 94 101 99 80 71 74 89
198 142 163 192 222 224 208 208 252 197 229 227 252 327 33 13 359 7 11 19 356 342 2 262 301 340 34 31 347 324 302 303 322 329 332 329 342 30 48 38 29 6 343 155 137 130 129 142 147 131 134 136 120 112
63 124 183 187 152 251 212 201 243 262 224 357 324 18 0 59 60 21 28 357 340 354 315 18 39 36 354 353 319 321 335 347 333 333 329 333 344 1 13 38 36 5 315 338 324 172 156 182 173 151 154 138 103 107
242 268 227 200 153 257 216 215 149 268 277 59 249 27 339 79 64 55 36 13 40 49 40 47 34 330 301 307 305 335 344 350 337 333 336 339 341 344 337 30 22 329 339 9 339 280 121 98 53 101 109 109 117 115
174 189 181 191 194 236 288 238 200 199 315 256 66 219 112 108 90 67 44 65 48 42 50 21 346 313 315 311 339 354 355 349 342 338 334 329 333 325 338 336 340 57 35 25 358 343 309 127 145 130 118 105 94 108
209 156 184 195 253 198 248 253 283 66 169 244 222 228 96 104 104 103 98 63 66 58 27 345 322 312 318 340 12 1 350 348 339 335 335 328 337 331 339 346 353 355 38 41 319 336 326 351 327 113 113 115 106 101
193 194 235 203 233 162 249 244 189 193 214 175 125 244 145 105 120 128 89 86 104 97 67 349 326 332 352 9 358 359 356 345 348 348 349 338 331 333 340 342 353 24 6 10 354 345 336 305 3 331 122 122 124 123
227 223 223 197 180 221 213 186 253 48 8 141 235 207 122 130 125 103 102 98 135 102 54 354 339 345 355 5 5 354 356 354 355 1 2 346 351 353 348 348 356 27 13 339 342 353 348 2 345 336 226 136 135 142
147 225 175 232 206 224 194 192 157 197 212 181 216 143 125 114 121 124 113 125 110 81 22 2 330 326 343 353 355 353 353 360 5 355 19 355 342 352 0 360 359 4 360 349 346 340 336 339 334 317 354 198 156 160
211 213 196 197 223 203 205 180 176 158 217 187 190 135 100 127 154 139 101 100 107 96 339 304 297 328 350 9 335 7 9 358 5 4 3 353 13 1 354 352 346 352 349 338 323 325 328 333 327 297 80 2 223 171
226 217 193 239 219 211 203 154 138 161 211 204 151 134 126 149 158 99 115 113 146 211 233 255 270 301 32 19 13 52 32 2 1 354 345 25 39 26 358 345 343 335 328 329 335 324 314 310 312 318 327 174 17 265
235 250 212 199 229 184 160 174 195 186 193 215 143 168 160 159 111 112 137 175 175 46 335 334 346 1 87 92 51 66 41 19 8 6 356 10 6 18 4 350 346 325 334 336 322 324 312 305 309 305 300 286 268 277
230 225 230 168 93 144 201 200 227 204 217 199 169 111 88 77 135 145 142 141 122 63 0 19 5 352 27 48 57 92 58 36 22 15 8 358 352 359 355 355 351 353 350 343 334 328 321 305 291 274 265 263 238 290
239 203 218 162 159 194 197 206 245 59 74 86 96 99 96 112 110 116 106 101 97 92 46 30 26 26 24 20 20 25 54 69 57 37 2 351 343 341 341 351 351 357 353 352 348 343 341 336 332 328 272 235 221 193
226 201 189 175 199 195 214 197 160 103 95 107 114 116 119 108 81 55 32 34 71 52 37 35 36 26 18 16 15 7 357 43 40 32 18 353 344 345 343 350 355 3 359 359 358 0 2 360 356 349 352 3 357 251
215 211 183 175 202 224 210 98 145 122 113 110 113 119 124 122 109 70 8 18 79 83 55 18 11 18 13 15 15 359 353 67 42 27 19 6 356 349 352 352 353 11 6 10 14 14 13 18 18 17 14 18 15 22
213 205 190 196 208 158 111 112 203 98 120 126 138 152 112 100 105 112 83 59 65 45 15 5 8 31 32 31 14 357 344 66 101 49 17 13 29 7 13 10 0 16 20 20 22 22 23 26 30 30 31 34 36 38